This demonstration page uses our WeatherBlox Daily Observations layout. Learn more.

40.92945, -100.16068

Hourly Observations for May 3, 2017

Temp ( °F °C ) Dew Point ( °F °C ) Humidity (%) Winds ( mph kmh ) Pressure ( in mb ) Visibility ( mi km ) Precip ( " mm )
12:15 am 00:15 Mostly Cloudy 42 5.6 40 4.3 91 91 W 3 6 30.09 1019 10 16.09344 0 0
12:35 am 00:35 Cloudy 43 5.9 40 4.7 92 92 W 5 7 30.09 1019 10 16.09344 0 0
12:55 am 00:55 Mostly Cloudy 42 5.6 40 4.4 92 92 WNW 6 9 30.09 1019 10 16.09344 0 0
1:15 am 01:15 Partly Cloudy 42 5.3 39 3.9 91 91 W 6 9 30.09 1019 10 16.09344 0 0
1:35 am 01:35 Clear 41 5.1 39 3.7 91 91 W 5 7 30.09 1019 10 16.09344 0 0
1:55 am 01:55 Clear 39 3.9 36 2.2 89 89 WNW 3 6 30.12 1020 10 16.09344 0 0
2:15 am 02:15 Clear 40 4.3 38 3.1 92 92 NNW 3 6 30.09 1019 10 16.09344 0 0
2:35 am 02:35 Clear 40 4.5 38 3.2 91 91 WNW 5 7 30.09 1019 10 16.09344 0 0
2:55 am 02:55 Partly Cloudy 38 3.5 36 2.3 92 92 WNW 3 6 30.12 1020 10 16.09344 0 0
3:15 am 03:15 Partly Cloudy 38 3.5 36 2.4 93 93 NW 6 9 30.12 1020 10 16.09344 0 0
3:35 am 03:35 Clear 37 2.9 35 1.9 93 93 WNW 7 11 30.12 1020 10 16.09344 0 0
3:55 am 03:55 Clear 37 2.8 35 1.8 93 93 WNW 6 9 30.12 1020 10 16.09344 0 0
4:15 am 04:15 Clear 37 2.9 36 2 94 94 W 7 11 30.12 1020 10 16.09344 0 0
4:35 am 04:35 Clear 37 2.8 35 1.9 94 94 WNW 7 11 30.12 1020 10 16.09344 0 0
4:55 am 04:55 Clear 37 2.8 35 1.8 93 93 NW 5 7 30.12 1020 10 16.09344 0 0
5:15 am 05:15 Clear 37 2.7 35 1.7 93 93 WNW 7 11 30.12 1020 10 16.09344 0 0
5:35 am 05:35 Clear 37 2.6 35 1.6 93 93 WNW 6 9 30.12 1020 10 16.09344 0 0
5:55 am 05:55 Clear 37 2.8 35 1.8 93 93 WNW 6 9 30.12 1020 10 16.09344 0 0
6:15 am 06:15 Clear 37 2.5 35 1.5 93 93 W 5 7 30.12 1020 10 16.09344 0 0
6:35 am 06:35 Sunny 36 2.3 34 1.2 93 93 W 6 9 30.12 1020 10 16.09344 0 0
6:55 am 06:55 Mostly Cloudy 36 2.3 34 1.3 93 93 WNW 7 11 30.12 1020 10 16.09344 0 0
7:15 am 07:15 Cloudy 40 4.3 38 3.3 93 93 WNW 7 11 30.09 1019 10 16.09344 0 0
7:35 am 07:35 Cloudy 42 5.3 39 3.8 90 90 WNW 9 15 30.12 1020 10 16.09344 0 0
7:55 am 07:55 Cloudy 42 5.6 39 3.8 88 88 WNW 8 13 30.12 1020 10 16.09344 0 0
8:15 am 08:15 Cloudy 43 6.1 40 4.5 90 90 WNW 6 9 30.12 1020 10 16.09344 0 0
8:35 am 08:35 Cloudy 44 6.8 41 4.9 88 88 WNW 6 9 30.12 1020 10 16.09344 0 0
8:55 am 08:55 Cloudy 46 7.8 42 5.4 85 85 NW 7 11 30.09 1019 10 16.09344 0 0
9:15 am 09:15 Cloudy 47 8.2 42 5.5 83 83 NW 8 13 30.09 1019 10 16.09344 0 0
9:35 am 09:35 Cloudy 49 9.4 44 6.5 82 82 NW 9 15 30.09 1019 10 16.09344 0 0
9:55 am 09:55 Cloudy 51 10.5 45 7 79 79 NW 6 9 30.09 1019 10 16.09344 0 0
10:15 am 10:15 Cloudy 51 10.7 44 6.8 77 77 NNW 7 11 30.06 1018 10 16.09344 0 0
10:35 am 10:35 Cloudy 53 11.5 45 7.1 75 75 NNW 10 17 30.06 1018 10 16.09344 0 0
10:55 am 10:55 Cloudy 52 10.9 42 5.8 71 71 N 15 24 30.06 1018 10 16.09344 0 0
11:15 am 11:15 Cloudy 52 11.1 44 6.8 75 75 N 15 24 30.09 1019 10 16.09344 0 0
11:35 am 11:35 Cloudy 51 10.4 44 6.6 78 78 N 14 22 30.12 1020 10 16.09344 0 0
11:55 am 11:55 Cloudy with Light Rain 51 10.5 44 6.7 78 78 N 17 28 30.12 1020 10 16.09344 0 0
12:15 pm 12:15 Cloudy 51 10.5 44 6.7 78 78 N 17 28 30.12 1020 10 16.09344 0 0
12:35 pm 12:35 Cloudy 50 10 43 5.9 76 76 N 17 28 30.12 1020 10 16.09344 0 0
12:55 pm 12:55 Cloudy 49 9.7 44 6.5 81 81 N 22 35 30.12 1020 10 16.09344 0.01 0.254
1:15 pm 13:15 Cloudy with Light Rain 48 8.8 43 6 83 83 N 15 24 30.12 1020 10 16.09344 0 0
1:35 pm 13:35 Cloudy with Light Rain 48 9.1 44 6.9 86 86 N 17 28 30.12 1020 7 11.265408 0 0
1:55 pm 13:55 Mostly Cloudy 52 11.2 47 8.1 81 81 N 14 22 30.09 1019 10 16.09344 0 0
2:15 pm 14:15 undefined N/A N/A N/A undefined N/A N/A N/A 0 0
2:35 pm 14:35 Mostly Cloudy 55 12.8 44 6.9 68 68 N 18 30 30.09 1019 N/A 0.03 0.762
2:55 pm 14:55 Mostly Cloudy 55 12.8 43 6.3 65 65 N 16 26 30.09 1019 10 16.09344 0.03 0.762
3:15 pm 15:15 Mostly Cloudy 56 13.5 43 6.3 62 62 N 18 30 30.09 1019 10 16.09344 0 0
3:35 pm 15:35 Mostly Cloudy 57 13.9 43 6.1 60 60 N 14 22 30.09 1019 10 16.09344 0 0
3:55 pm 15:55 Mostly Cloudy 57 13.8 42 5.8 59 59 N 16 26 30.09 1019 10 16.09344 0 0
4:15 pm 16:15 Partly Cloudy 59 14.8 42 5.7 55 55 N 15 24 30.03 1017 10 16.09344 0 0
4:35 pm 16:35 Partly Cloudy 59 15 41 5.1 52 52 N 17 28 30.03 1017 10 16.09344 0 0
4:55 pm 16:55 Mostly Cloudy with Light Rain 55 12.6 42 5.7 63 63 N 17 28 30.06 1018 10 16.09344 0 0
5:15 pm 17:15 Partly Cloudy 59 15 39 4 48 48 N 23 37 30.03 1017 10 16.09344 0 0
5:35 pm 17:35 Sunny 59 15.1 40 4.5 49 49 N 21 33 30.03 1017 10 16.09344 0 0
5:55 pm 17:55 Sunny 58 14.5 39 4.1 50 50 NNE 18 30 30.03 1017 10 16.09344 0 0
6:15 pm 18:15 Sunny 58 14.7 40 4.2 50 50 N 18 30 30.06 1018 10 16.09344 0 0
6:35 pm 18:35 Sunny 59 15 40 4.4 49 49 N 21 33 30.06 1018 10 16.09344 0 0
6:55 pm 18:55 Partly Cloudy 59 14.9 40 4.7 51 51 N 13 20 30.06 1018 10 16.09344 0 0
7:15 pm 19:15 Mostly Cloudy 58 14.3 39 4 50 50 N 15 24 30.06 1018 10 16.09344 0 0
7:35 pm 19:35 Cloudy 56 13.5 40 4.6 55 55 NNE 13 20 30.09 1019 10 16.09344 0 0
7:55 pm 19:55 Partly Cloudy 54 12.4 40 4.7 60 60 N 12 19 30.09 1019 10 16.09344 0 0
8:15 pm 20:15 Partly Cloudy 52 11.3 41 5 65 65 N 8 13 30.09 1019 10 16.09344 0 0
8:35 pm 20:35 Partly Cloudy 51 10.5 40 4.4 66 66 N 8 13 30.12 1020 10 16.09344 0 0
8:55 pm 20:55 Clear 49 9.2 39 4 70 70 N 7 11 30.15 1021 10 16.09344 0 0
9:15 pm 21:15 Clear 47 8.4 38 3.5 72 72 N 8 13 30.15 1021 10 16.09344 0 0
9:35 pm 21:35 Clear 46 7.5 38 3.2 74 74 NNE 8 13 30.21 1023 10 16.09344 0 0
9:55 pm 21:55 Clear 46 7.6 38 3.2 74 74 N 6 9 30.21 1023 10 16.09344 0 0
10:15 pm 22:15 Partly Cloudy 44 6.6 37 2.9 77 77 N 8 13 30.21 1023 10 16.09344 0 0
10:35 pm 22:35 Partly Cloudy 43 6 37 2.8 80 80 N 7 11 30.21 1023 10 16.09344 0 0
10:55 pm 22:55 Clear 43 6.1 37 2.8 80 80 N 7 11 30.21 1023 10 16.09344 0 0
11:15 pm 23:15 Clear 42 5.4 36 2.2 80 80 Calm 30.27 1025 10 16.09344 0 0
11:35 pm 23:35 Clear 41 5.1 36 2.3 82 82 NNW 3 6 30.27 1025 10 16.09344 0 0
11:55 pm 23:55 Clear 38 3.4 34 1.1 85 85 NW 5 7 30.27 1025 10 16.09344 0 0

Powered by AerisWeather